Vertical_Velocity
0 -1 -3 -1 -2 -2 -1 -2 -1 -2 -2 -3 -1 -2 -2 -3 -2 0 1 7 -5 -4 -2 4 -1 -3 -5 -6 -8 10 -2 1 6 -3 -2 -1 -3 -11 -10 -2 -6 -5 8 -12 -8
-0 -0 -1 -1 -1 -1 -1 -2 -1 -1 -1 -1 -2 -3 -3 -4 -1 -6 -1 -9 -0 -3 -7 2 20 16 2 4 4 10 1 6 5 3 0 0 -2 -2 -10 -2 5 -2 7 3 1
0 -1 -1 0 -0 -0 -2 0 -0 -2 -2 -2 -3 -3 -2 -3 -5 27 -7 -6 1 -1 -9 5 -3 4 5 -0 5 -0 3 2 3 -2 0 0 3 -5 -1 0 5 -7 0 -1 6
1 1 -1 -0 -1 -1 -1 -2 -2 -2 -1 -1 -2 -1 -1 -0 17 -8 -7 -6 -4 0 -0 1 -1 9 1 0 1 5 -1 1 -0 -1 2 1 1 3 5 12 2 -9 -4 -3 2
-2 -2 -2 -1 -1 -0 -1 -1 -0 0 -0 -1 -3 -2 -3 5 1 -10 -5 -4 -3 -4 4 6 4 4 2 2 0 1 1 -1 -1 -0 0 -7 1 3 4 -9 6 -4 0 -0 0
-1 -1 -1 -3 -2 -2 -2 -2 0 0 -1 -2 -2 -1 -3 11 -6 -3 -3 -0 2 -3 2 -1 8 -5 3 0 3 3 -1 1 -1 1 -0 5 1 -7 1 0 1 -1 1 -0 1
-2 -1 -2 -2 -2 -2 -2 -3 -0 -1 -0 -1 -2 -2 -0 0 -10 2 -5 -1 7 -2 3 13 -4 6 5 -3 -3 1 8 3 2 0 1 4 3 2 -2 -1 1 1 1 2 -1
-1 -1 -2 -1 -2 -2 -3 -4 -3 -2 -1 -1 -1 -2 -6 -4 -2 -2 -2 -3 -2 -4 -5 -3 -3 -4 3 3 5 8 -7 3 9 1 -1 9 -5 5 -1 -2 1 4 1 -0 -0
-0 -0 -1 -1 -1 -1 -2 -2 -2 -3 0 -1 -4 -3 -1 -8 -7 -8 -3 -5 4 -2 -4 -3 -2 1 6 4 -7 -7 -0 -1 7 -1 1 6 0 5 -2 -0 2 -0 1 -2 2
-1 -0 -0 -1 -1 -2 -2 -2 -3 -1 -2 -3 -5 14 -7 -3 11 -2 -2 -1 17 3 5 5 8 7 7 -1 -5 -2 0 2 1 6 3 0 -2 4 -2 0 -0 -0 1 -0 -2
-2 -1 -1 -1 -1 -2 -3 -5 0 2 2 -3 17 1 -7 -4 -11 -11 -1 1 5 17 5 -4 17 -2 -4 1 2 2 2 -1 -1 1 4 -2 -0 -0 -0 3 3 0 2 -1 -1
-1 -2 -2 -1 -1 -1 -3 10 -8 7 -6 8 -8 -2 2 -5 9 0 7 15 12 -1 6 18 -2 -8 1 -1 2 1 -0 -5 1 -0 7 -1 -2 -1 0 -4 -3 -5 -1 2 3
-2 -2 -2 -0 -2 -6 1 11 -3 -2 9 6 -4 0 -9 7 -9 -0 -1 -7 -0 7 -0 2 -19 2 2 0 6 -2 2 -0 3 -2 -0 5 -13 -3 4 4 3 5 -3 3 -1
-2 -3 -3 -2 -4 -6 16 -7 -3 -1 10 10 4 2 -3 -5 2 -6 -6 -2 10 -2 0 -4 -10 5 2 -0 9 1 2 1 1 8 -8 18 -2 -3 2 2 2 -0 2 -3 2
-1 -3 -0 -3 -4 7 -2 -2 -4 1 11 19 13 -4 13 -1 8 2 -6 17 -3 -7 23 -33 1 2 4 -11 5 -1 1 4 2 2 13 -13 5 -14 1 7 1 -1 2 -2 1
0 -3 -1 -5 -4 -6 -4 -2 0 23 4 7 2 -0 10 5 -2 19 2 11 -7 8 5 -7 -1 8 -11 -4 1 -2 2 4 3 6 4 -6 20 8 -7 4 2 2 -1 -2 -6
0 -2 -4 -1 26 -4 -2 3 18 12 9 5 -0 2 -0 1 5 2 2 9 2 15 4 4 -6 -5 8 13 5 8 11 1 4 3 5 -3 13 11 2 2 -1 -1 -1 3 2
-1 -2 -5 -2 -0 -1 -1 18 12 -1 -1 4 -0 2 2 -2 -3 0 5 5 5 8 3 -0 18 7 -5 1 -4 -5 7 10 1 1 -4 5 5 5 -3 -0 -0 -2 -2 -1 1
-3 0 -2 1 -2 -1 14 10 -14 -1 2 2 1 7 2 4 3 10 0 -3 -7 -0 9 7 -5 3 4 -1 18 -21 11 -6 10 -1 9 3 7 18 0 2 1 2 -0 1 1
-6 -2 18 -7 -1 -1 15 -9 6 -0 1 6 7 4 1 -2 7 11 0 -10 -5 -1 4 -19 0 -4 -0 15 1 15 -8 19 2 4 -2 5 -2 3 3 3 1 3 -0 0 -1
-4 11 -5 -6 -2 13 2 -9 -1 -2 2 10 0 1 -1 4 -2 -2 -12 -8 1 -4 2 3 9 -14 13 2 -5 10 2 3 13 -7 5 0 5 -4 0 2 1 1 -0 -3 0
-1 10 -7 -5 17 -2 1 -3 -4 -3 0 -1 5 3 4 0 1 3 -2 -4 -1 -2 0 -13 2 0 -12 -11 -3 -0 -8 2 10 -6 -1 5 -14 -1 1 1 -2 1 -2 -1 -2
4 11 -6 -1 5 -0 -2 -2 1 4 -2 1 0 2 -1 2 5 4 -0 -8 1 2 -5 -10 -1 3 6 26 10 4 -7 -1 2 6 -6 6 3 0 1 1 -2 0 2 0 -0
5 7 11 3 -4 10 1 -3 1 -1 -3 2 -1 5 3 2 -0 -3 -1 3 -3 -1 3 8 2 0 -5 -16 -6 7 1 -1 8 9 -6 -5 -7 -1 1 0 2 4 1 1 -2
2 -1 1 2 1 1 5 2 0 2 -1 4 2 3 2 4 1 0 -1 4 4 -0 -1 10 3 7 -4 -1 3 -3 -2 -1 6 -8 16 -11 0 -0 0 2 4 -4 0 2 0
10 5 -1 -5 0 3 -2 -7 1 -5 5 -4 6 -3 1 3 3 3 3 2 -12 7 1 0 -9 4 -4 -1 2 2 -1 0 -0 -2 2 2 -6 4 -2 5 1 -1 -1 1 -0
10 -0 4 -7 -2 9 -8 -9 -6 2 -7 -0 5 4 2 -4 4 4 0 0 2 3 -0 5 4 6 -8 0 4 15 -9 -2 -3 0 -2 4 -10 -1 -4 -1 1 2 -1 -3 -2
Height
1522 1521 1520 1519 1517 1516 1515 1514 1513 1512 1511 1510 1509 1508 1506 1504 1502 1503 1502 1501 1501 1499 1499 1500 1500 1498 1497 1491 1488 1482 1505 1488 1478 1503 1488 1485 1484 1494 1493 1492 1497 1500 1499 1506 1515
1523 1521 1520 1519 1517 1516 1514 1513 1512 1510 1509 1508 1507 1506 1505 1502 1500 1500 1498 1500 1500 1499 1499 1500 1495 1494 1489 1482 1482 1476 1482 1480 1478 1476 1484 1482 1483 1491 1496 1496 1496 1502 1505 1510 1514
1523 1522 1520 1519 1517 1515 1514 1512 1510 1509 1508 1507 1506 1505 1504 1502 1499 1494 1495 1497 1498 1498 1499 1499 1496 1493 1482 1477 1476 1476 1482 1480 1482 1486 1483 1481 1482 1487 1488 1495 1492 1499 1507 1512 1514
1523 1521 1520 1518 1516 1514 1513 1511 1510 1509 1507 1505 1504 1503 1503 1502 1493 1492 1493 1496 1497 1497 1499 1498 1493 1484 1484 1478 1475 1477 1483 1486 1486 1487 1484 1480 1482 1483 1486 1488 1493 1498 1506 1511 1515
1523 1521 1519 1517 1515 1513 1511 1510 1509 1507 1506 1504 1503 1502 1502 1502 1495 1492 1493 1495 1496 1497 1498 1496 1490 1483 1480 1472 1474 1473 1480 1486 1487 1487 1485 1486 1484 1485 1485 1492 1494 1501 1506 1511 1514
1523 1521 1519 1517 1515 1513 1510 1509 1507 1506 1504 1503 1503 1502 1502 1499 1493 1494 1494 1495 1497 1497 1496 1494 1489 1488 1481 1475 1473 1476 1481 1482 1485 1485 1485 1482 1484 1488 1489 1492 1496 1502 1506 1509 1512
1522 1520 1518 1515 1513 1511 1508 1507 1506 1504 1503 1502 1502 1500 1501 1495 1493 1494 1494 1495 1496 1497 1494 1492 1492 1489 1481 1480 1479 1477 1476 1477 1481 1482 1481 1482 1484 1480 1489 1493 1497 1501 1505 1508 1512
1521 1519 1517 1514 1512 1509 1507 1505 1504 1503 1502 1501 1500 1500 1496 1490 1492 1492 1493 1494 1495 1495 1495 1493 1492 1488 1482 1477 1475 1471 1480 1479 1477 1480 1480 1484 1489 1482 1489 1492 1495 1499 1503 1508 1511
1520 1518 1516 1513 1510 1507 1505 1504 1502 1501 1500 1500 1500 1500 1492 1487 1488 1489 1491 1492 1492 1494 1494 1493 1492 1484 1478 1476 1503 1474 1485 1477 1477 1478 1477 1479 1474 1479 1487 1489 1491 1496 1500 1506 1509
1519 1517 1515 1511 1508 1505 1503 1502 1500 1499 1498 1498 1499 1502 1489 1485 1485 1487 1489 1490 1488 1491 1492 1491 1486 1477 1468 1472 1509 1484 1477 1481 1476 1473 1476 1475 1474 1472 1483 1485 1487 1491 1496 1502 1506
1517 1515 1513 1510 1507 1504 1503 1501 1501 1499 1497 1488 1486 1483 1484 1485 1486 1486 1487 1489 1488 1486 1485 1483 1481 1476 1461 1467 1468 1469 1470 1474 1470 1468 1472 1469 1469 1465 1475 1481 1482 1487 1491 1497 1502
1516 1514 1511 1508 1505 1504 1503 1502 1501 1502 1493 1484 1484 1484 1484 1485 1483 1482 1485 1486 1484 1481 1480 1478 1480 1465 1459 1468 1471 1465 1468 1486 1466 1465 1468 1466 1466 1461 1466 1473 1477 1483 1487 1490 1496
1515 1512 1510 1507 1505 1504 1504 1503 1501 1500 1492 1473 1478 1479 1480 1483 1480 1476 1481 1481 1477 1477 1474 1475 1466 1467 1464 1471 1471 1460 1470 1470 1468 1462 1461 1467 1496 1466 1463 1466 1472 1476 1482 1485 1489
1513 1511 1509 1506 1506 1505 1503 1502 1501 1501 1487 1466 1472 1473 1477 1479 1476 1474 1475 1477 1473 1472 1469 1466 1465 1462 1463 1473 1466 1468 1464 1462 1464 1468 1513 1471 1501 1464 1459 1462 1465 1471 1475 1481 1485
1512 1509 1508 1505 1504 1505 1504 1502 1501 1501 1488 1462 1466 1471 1470 1473 1463 1469 1473 1474 1470 1467 1469 1467 1467 1465 1469 1467 1462 1464 1463 1462 1460 1462 1453 1480 1476 1500 1453 1459 1459 1463 1467 1474 1479
1510 1507 1506 1505 1503 1503 1502 1502 1502 1496 1483 1460 1461 1465 1468 1468 1464 1463 1470 1472 1471 1466 1463 1463 1458 1460 1459 1461 1460 1464 1467 1459 1454 1450 1473 1499 1459 1499 1504 1452 1448 1450 1459 1466 1474
1508 1505 1503 1503 1504 1502 1502 1502 1494 1483 1455 1457 1456 1457 1458 1460 1461 1462 1467 1469 1470 1479 1472 1462 1463 1458 1460 1463 1456 1464 1469 1478 1479 1476 1509 1494 1466 1466 1446 1446 1444 1452 1459 1462 1467
1504 1502 1499 1499 1500 1500 1502 1497 1492 1456 1454 1453 1456 1452 1456 1450 1456 1456 1458 1462 1459 1457 1457 1467 1471 1458 1455 1459 1459 1461 1462 1467 1490 1485 1480 1466 1458 1459 1444 1445 1448 1454 1460 1464 1467
1501 1500 1498 1498 1496 1498 1501 1488 1471 1456 1454 1459 1453 1455 1452 1446 1449 1452 1454 1454 1449 1453 1462 1453 1457 1439 1449 1452 1456 1457 1462 1446 1454 1439 1453 1445 1455 1432 1436 1445 1448 1453 1461 1465 1468
1499 1499 1497 1496 1495 1498 1494 1481 1459 1462 1466 1462 1460 1447 1446 1448 1454 1450 1449 1445 1446 1445 1450 1447 1463 1439 1444 1451 1452 1453 1442 1465 1455 1480 1479 1474 1459 1445 1450 1442 1444 1450 1459 1464 1469
1499 1494 1492 1492 1495 1495 1484 1470 1462 1464 1470 1464 1454 1455 1449 1441 1445 1443 1447 1440 1441 1442 1446 1448 1449 1448 1444 1452 1451 1455 1458 1453 1443 1476 1463 1466 1475 1470 1436 1440 1445 1447 1456 1464 1469
1501 1488 1490 1492 1493 1482 1473 1465 1467 1465 1467 1467 1463 1461 1454 1445 1446 1445 1444 1438 1437 1443 1445 1448 1446 1456 1443 1438 1442 1443 1451 1450 1459 1467 1449 1452 1454 1422 1429 1436 1444 1447 1455 1462 1467
1498 1488 1489 1491 1478 1467 1466 1467 1468 1467 1463 1462 1461 1456 1450 1450 1457 1444 1439 1437 1439 1442 1442 1446 1453 1462 1453 1439 1439 1446 1441 1438 1438 1433 1449 1460 1451 1430 1430 1440 1446 1447 1454 1461 1466
1500 1481 1483 1487 1478 1469 1459 1464 1463 1465 1465 1460 1460 1457 1456 1455 1449 1447 1440 1438 1444 1444 1445 1445 1443 1448 1453 1445 1434 1448 1444 1439 1436 1445 1442 1441 1438 1428 1430 1435 1444 1448 1456 1462 1467
1497 1481 1481 1471 1472 1469 1462 1460 1461 1460 1461 1460 1460 1460 1455 1453 1446 1444 1439 1433 1442 1443 1446 1445 1450 1441 1435 1430 1428 1433 1439 1441 1444 1438 1445 1433 1439 1426 1429 1432 1439 1446 1454 1459 1465
1497 1491 1486 1478 1470 1469 1467 1466 1462 1458 1459 1456 1460 1448 1450 1454 1445 1440 1435 1430 1431 1438 1441 1438 1448 1439 1442 1431 1431 1434 1429 1431 1435 1436 1436 1434 1436 1425 1429 1431 1436 1442 1449 1455 1460
1499 1497 1495 1479 1472 1468 1462 1461 1459 1459 1460 1458 1454 1451 1455 1452 1448 1445 1444 1439 1439 1425 1430 1435 1437 1438 1447 1430 1431 1443 1431 1425 1426 1425 1426 1440 1432 1430 1430 1429 1431 1437 1444 1450 1455